Location: Newark
(50.0306°N, 2.3272°E)
Time: 20:35:28
(UTC+00:00)

Vanguard 1 - Pass Details

Date: 16 December 2019
Orbit: 650 x 3833 km, 34.2° (Epoch: 28 January)

Event Time Altitude Azimuth Distance (km) Brightness Sun altitude
Exits shadow 02:55:19 38° 190° (S) 4,952 13.2 -44.7°
Maximum altitude 03:02:02 44° 159° (SSE) 4,687 13.3 -43.6°
Drops below altitude 10° 03:21:07 10° 97° (E) 6,178 14.7 -40.7°
Sets 03:25:32 0° 92° (E) 6,867 15.2 -40.0°
